[[{"header":{"parameterUnit":"m.s-1","parameterCategory":1,"la1":30.2992,"la2":30.254,"lo1":-89.0895,"lo2":-89.0443,"dy":0.0025,"dx":0.0025,"nx":19,"ny":19,"refTime":"2026-03-17T21:00:00:Z","depth":0,"parameterNumber":2,"parameterNumberName":"U-component_of_WINDS"},"data":[0,0,0,1.2287,1.2285,1.2211,1.2211,1.2113,1.2112,0,0,0,0,0,0,0,0,0,0,0,1.231,1.231,1.2287,1.2285,1.2211,1.2211,1.2113,1.2112,0,0,0,0,0,0,0,0,0,0,0,1.2311,1.231,1.2309,1.2285,1.2211,1.2211,1.2113,1.2169,0,0,0,0,0,0,0,0,0,0,1.2241,1.2266,1.231,1.2309,1.2284,1.2211,1.2211,1.2172,1.2166,1.2146,0,1.2132,0,1.2121,1.2105,1.2105,0,0,0,1.2283,1.2271,1.225,1.2309,1.2284,1.2211,1.2244,1.2168,1.2161,1.2138,1.2131,1.2127,1.2119,1.2105,1.2104,1.2006,1.2006,0,0,1.2287,1.2297,1.2255,1.2246,1.2261,1.2246,1.2242,1.2164,1.2156,1.2131,1.2125,1.2118,1.2104,1.2103,1.2007,1.2006,0,0,0,1.23,1.23,1.2281,1.225,1.2237,1.2244,1.2239,1.2159,1.2152,1.2124,1.2116,1.2104,1.2102,1.2007,1.2006,1.1999,0,0,0,1.2302,1.2308,1.2283,1.2288,1.2238,1.2198,1.2236,1.2158,1.2149,1.2117,1.2104,1.2101,1.2007,1.2007,1.2,1.1993,0,0,0,1.2314,1.2309,1.23,1.2289,1.2258,1.2199,1.2188,1.2156,1.2144,1.2105,1.2101,1.2008,1.2007,1.2001,1.1994,1.1968,0,0,0,1.2329,1.2294,1.23,1.2256,1.2259,1.2197,1.2188,1.2141,1.2106,1.2103,1.2007,1.2006,1.2001,1.1995,1.197,1.1947,1.194,0,0,1.229,1.2289,1.2263,1.2266,1.2206,1.2207,1.2145,1.2102,1.2087,1.2033,1.203,1.2,1.1994,1.1969,1.1899,1.1893,0,0,0,1.2254,1.2235,1.2217,1.2186,1.2155,1.2125,1.2092,1.2076,1.203,1.2063,1.1985,1.1981,1.1965,1.1954,1.1949,1.1933,1.2003,1.2003,1.2003,1.221,1.2196,1.215,1.2127,1.2097,1.2063,1.2035,1.2007,1.2,1.1981,1.1964,1.1924,1.1911,1.1907,1.1891,1.1953,1.1953,1.1953,1.1953,1.2149,1.2118,1.2111,1.2064,1.2048,1.2006,1.1971,1.1967,1.1924,1.1936,1.1921,1.1933,1.1902,1.1886,1.1953,1.1953,1.1953,1.1953,1.1953,1.2117,1.2099,1.2083,1.2036,1.2001,1.1977,1.1936,1.1923,1.1909,1.1895,1.1873,1.1873,1.1869,1.1886,1.1886,1.1886,1.1886,1.1886,1.1885,1.2089,1.2071,1.204,1.2004,1.1981,1.195,1.1915,1.1891,1.186,1.1853,1.1853,1.1845,1.1903,1.1916,1.1883,1.1884,1.1884,1.1884,1.1884,1.2027,1.2039,1.1992,1.197,1.1925,1.1889,1.1873,1.1826,1.1804,1.1783,1.1779,1.1826,1.1823,1.1826,1.1837,1.1785,1.1785,1.1785,1.1785,1.1998,1.1997,1.1944,1.1909,1.1873,1.1854,1.1796,1.1767,1.1739,1.1723,1.173,1.1743,1.1748,1.1742,1.1748,1.1757,1.1686,1.1686,1.1686,1.1958,1.1952,1.1907,1.1884,1.1847,1.1815,1.1759,1.1715,1.1685,1.1681,1.171,1.1714,1.1737,1.1745,1.1739,1.1749,1.1766,0,0]},{"header":{"parameterUnit":"m.s-1","parameterCategory":1,"la1":30.2992,"la2":30.254,"lo1":-89.0895,"lo2":-89.0443,"dy":0.0025,"dx":0.0025,"nx":19,"ny":19,"refTime":"2026-03-17T21:00:00:Z","depth":0,"parameterNumber":3,"parameterNumberName":"V-component_of_WINDS"},"data":[0,0,0,1.2922,1.2923,1.2967,1.2967,1.3022,1.3023,0,0,0,0,0,0,0,0,0,0,0,1.2908,1.2908,1.2922,1.2923,1.2967,1.2967,1.3022,1.3023,0,0,0,0,0,0,0,0,0,0,0,1.2908,1.2908,1.2909,1.2923,1.2967,1.2967,1.3022,1.2989,0,0,0,0,0,0,0,0,0,0,1.2947,1.2933,1.2908,1.2909,1.2923,1.2967,1.2967,1.2988,1.2992,1.3002,0,1.3011,0,1.3018,1.3027,1.3027,0,0,0,1.2924,1.293,1.2943,1.2909,1.2924,1.2967,1.2947,1.299,1.2994,1.3007,1.3012,1.3014,1.3019,1.3027,1.3027,1.3084,1.3084,0,0,1.2921,1.2916,1.294,1.2945,1.2938,1.2946,1.2949,1.2992,1.2997,1.3012,1.3015,1.3019,1.3027,1.3028,1.3083,1.3084,0,0,0,1.2914,1.2914,1.2925,1.2943,1.2951,1.2947,1.295,1.2995,1.3,1.3016,1.302,1.3028,1.3028,1.3083,1.3084,1.3089,0,0,0,1.2912,1.2909,1.2924,1.2921,1.295,1.2974,1.2952,1.2997,1.3002,1.302,1.3028,1.3029,1.3083,1.3083,1.3088,1.3092,0,0,0,1.2906,1.2909,1.2915,1.2921,1.2939,1.2973,1.298,1.2998,1.3005,1.3027,1.3029,1.3083,1.3083,1.3088,1.3091,1.3106,0,0,0,1.2897,1.2919,1.2915,1.2941,1.2939,1.2976,1.298,1.3007,1.3027,1.3028,1.3083,1.3084,1.3087,1.3091,1.3105,1.3116,1.312,0,0,1.2922,1.2922,1.2938,1.2935,1.2971,1.2969,1.3007,1.303,1.3038,1.3068,1.307,1.3088,1.3091,1.3105,1.3146,1.3149,0,0,0,1.2944,1.2956,1.2966,1.2985,1.3003,1.3019,1.3038,1.3046,1.3072,1.3052,1.3097,1.3099,1.3108,1.3114,1.3116,1.3124,1.3086,1.3086,1.3086,1.2972,1.298,1.3007,1.302,1.3038,1.3057,1.3072,1.3087,1.3091,1.3101,1.311,1.3134,1.314,1.3142,1.315,1.3117,1.3117,1.3117,1.3117,1.3009,1.3027,1.303,1.3058,1.3067,1.3091,1.3109,1.3111,1.3135,1.3128,1.3135,1.3127,1.3146,1.3153,1.3117,1.3117,1.3117,1.3117,1.3117,1.3028,1.3038,1.3048,1.3075,1.3095,1.3108,1.313,1.3137,1.3144,1.3152,1.3162,1.3162,1.3163,1.3156,1.3156,1.3156,1.3156,1.3156,1.3156,1.3044,1.3055,1.3073,1.3094,1.3106,1.3123,1.3142,1.3155,1.3171,1.3174,1.3174,1.3177,1.3146,1.3138,1.3158,1.3158,1.3157,1.3157,1.3157,1.3079,1.3072,1.31,1.3112,1.3137,1.3156,1.3165,1.319,1.3202,1.3212,1.3213,1.3189,1.319,1.3188,1.3181,1.3211,1.3211,1.3211,1.3211,1.3095,1.3096,1.3126,1.3145,1.3165,1.3175,1.3206,1.3221,1.3235,1.3243,1.324,1.3231,1.3229,1.3231,1.3228,1.3222,1.3262,1.3262,1.3262,1.3118,1.3121,1.3145,1.3159,1.3179,1.3196,1.3225,1.3248,1.3263,1.3264,1.3249,1.3247,1.3234,1.3229,1.3231,1.3226,1.3215,0,0]}]]